Flag for Norway Weather past 2 weeks in Jørpeland, Norway

Now
66 °F

Clear.


Feels Like: 66 °F
Forecast: 54 / 58 °F
Wind: 14 mph from Southeast

Location: Stavanger / Sola

Current Time: Aug 4, 2015 at 4:18:09 AM

Latest Report: Aug 4, 2015 at 3:50 AM


Visibility: 10 mi

Pressure: 29.80 "Hg

Humidity: 60%

Dew point: 52 °F

Location of JørpelandLocation

Historic Weather in Jørpeland — Graph

°F

Jørpeland temperature yesterday

Maximum temperature yesterday: 73 °F (at 6:20 PM)
Minimum temperature yesterday: 50 °F (at 1:50 AM)
Average temperature yesterday: 63 °F

Past Weeks' High & Low Weather Summary

 TemperatureHumidityPressure
High73 °F (Aug 3, 6:20 PM)100% (Jul 20, 2:50 AM)30.12 "Hg (Jul 20, 2:50 AM)
Low48 °F (Jul 27, 5:50 AM)38% (Aug 3, 5:50 PM)29.39 "Hg (Jul 29, 9:20 AM)
Average57 °F79%29.75 "Hg
* Reported Jul 20 2:50 AM — Aug 4 2:50 AM, Jørpeland, Weather by CustomWeather, © 2015

Note: Actual official high and low records may vary slightly from our data, if they occured in-between our weather recording intervals... More about our weather records

Advertising

Jørpeland weather history for previous 24 hours

 ConditionsComfort  
Time TempWeatherWind HumidityBarometerVisibility
2:50 AM
Tue, Aug 4
68 °FClear.15 mph56%29.83 "Hg10 mi
1:50 AM68 °FClear.20 mph56%29.80 "Hg10 mi
1:20 AM68 °FClear.21 mph56%29.83 "Hg10 mi
12:50 AM68 °FClear.22 mph56%29.83 "Hg10 mi
12:20 AM68 °FClear.21 mph56%29.83 "Hg10 mi
11:20 PM
Mon, Aug 3
68 °FClear.18 mph56%29.86 "Hg10 mi
10:50 PM68 °FSunny.18 mph53%29.86 "Hg10 mi
10:20 PM70 °FSunny.20 mph50%29.86 "Hg10 mi
9:50 PM70 °FSunny.17 mph46%29.86 "Hg10 mi
9:20 PM70 °FSunny.15 mph46%29.89 "Hg10 mi
8:50 PM70 °FSunny.16 mph46%29.89 "Hg10 mi
8:20 PM72 °FSunny.13 mph44%29.89 "Hg10 mi
7:50 PM72 °FSunny.16 mph44%29.89 "Hg10 mi
7:20 PM73 °FSunny.17 mph41%29.92 "Hg10 mi
6:50 PM72 °FSunny.16 mph44%29.92 "Hg10 mi
6:20 PM73 °FSunny.14 mph41%29.95 "Hg10 mi
5:50 PM72 °FSunny.17 mph38%29.95 "Hg10 mi
5:20 PM72 °FSunny.16 mph41%29.95 "Hg10 mi
4:50 PM72 °FSunny.18 mph41%29.98 "Hg10 mi
4:20 PM72 °FSunny.15 mph44%29.98 "Hg10 mi
3:50 PM70 °FSunny.14 mph46%30.01 "Hg10 mi
3:20 PM68 °FSunny.17 mph46%30.01 "Hg10 mi
2:50 PM68 °FSunny.16 mph43%30.01 "Hg10 mi
2:20 PM68 °FScattered clouds.16 mph43%30.01 "HgN/A
1:50 PM66 °FScattered clouds.13 mph49%30.04 "HgN/A
1:20 PM68 °FBroken clouds.16 mph43%30.04 "HgN/A
12:50 PM66 °FBroken clouds.14 mph49%30.04 "HgN/A
12:20 PM64 °FPartly sunny.9 mph49%30.04 "HgN/A
11:50 AM64 °FPartly sunny.13 mph49%30.07 "HgN/A
11:20 AM63 °FBroken clouds.7 mph56%30.04 "HgN/A
10:50 AM61 °FBroken clouds.6 mph63%30.07 "HgN/A
10:20 AM59 °FBroken clouds.5 mph63%30.07 "HgN/A
9:50 AM59 °FBroken clouds.6 mph72%30.07 "HgN/A
9:20 AM57 °FScattered clouds.5 mph72%30.07 "HgN/A
8:50 AM55 °FPartly sunny.3 mph82%30.09 "HgN/A
8:20 AM54 °FBroken clouds.2 mph88%30.07 "HgN/A
7:50 AM54 °FPartly sunny.2 mph88%30.07 "HgN/A
7:20 AM52 °FBroken clouds.6 mph94%30.07 "HgN/A
6:50 AM52 °FPartly sunny.3 mph88%30.07 "HgN/A
6:20 AM52 °FClear.6 mph88%30.07 "Hg10 mi
5:50 AM52 °FClear.6 mph88%30.09 "Hg10 mi
4:50 AM50 °FClear.5 mph94%30.09 "Hg10 mi
Weather by CustomWeather, © 2015

See weather overviewHow to use our weather pages